Weather History for Marshall, MN

Change the Weather History Date:

Thursday, August 15, 2013

  Actual Average Record
Temperature  
Mean Temperature 64 °F -  
Max Temperature 75 °F 84 °F 105 °F (1988)
Min Temperature 53 °F 59 °F 44 °F (1979)
Degree Days  
Heating Degree Days 1    
Growing Degree Days 14 (Base 50)    
Moisture  
Dew Point 53 °F    
Average Humidity 70    
Maximum Humidity 88    
Minimum Humidity 44    
Precipitation  
Precipitation 0.00 in - - ()
Sea Level Pressure  
Sea Level Pressure 30.11 in    
Wind  
Wind Speed 5 mph (South)    
Max Wind Speed 13 mph    
Max Gust Speed 17 mph    
Visibility 10 miles    
Events      
Averages and records for this station are not official NWS values.
T = Trace of Precipitation, MM = Missing Value Source: NWS Daily Summary

Daily Weather History Graph

Daily Weather History Graph

Search for Another Location

Airport:

Trip Planner

Search our weather history database for the weather conditions in past years. The results will help you decide how hot, cold, wet, or windy it might be!

Date:

Astronomy

Aug. 15, 2013 Rise Set
Actual Time 6:26 AM CDT 8:28 PM CDT
Civil Twilight 5:54 AM CDT 8:59 PM CDT
Nautical Twilight 5:16 AM CDT 9:38 PM CDT
Astronomical Twilight 4:33 AM CDT 10:20 PM CDT
Moon 3:50 PM CDT (8/15) 12:33 AM CDT (8/15)
Length of Visible Light 15h 04m
Length of Day
14h 01m
Waxing Gibbous, 64% of the Moon is Illuminated
Aug 15
Waxing Gibbous
Aug 20
Full
Aug 28
Last Quarter
Sep 5
New
Sep 12
First Quarter

Hourly Weather History & Observations

Time (CDT) Temp. Dew Point Humidity Pressure Visibility Wind Dir Wind Speed Gust Speed Precip Events Conditions
12:15 AM 60.8 °F 53.6 °F 77% 30.12 in 10.0 mi WSW 8.1 mph - N/A   Clear
12:35 AM 60.8 °F 53.6 °F 77% 30.12 in 10.0 mi SW 6.9 mph - N/A   Clear
12:55 AM 59.0 °F 53.6 °F 82% 30.12 in 10.0 mi SSW 4.6 mph - N/A   Clear
1:15 AM 59.0 °F 53.6 °F 82% 30.12 in 10.0 mi SSW 5.8 mph - N/A   Clear
1:35 AM 57.2 °F 53.6 °F 88% 30.11 in 10.0 mi Calm Calm - N/A   Clear
1:55 AM 57.2 °F 51.8 °F 82% 30.11 in 10.0 mi SSW 4.6 mph - N/A   Clear
2:15 AM 55.4 °F 51.8 °F 88% 30.11 in 10.0 mi SW 5.8 mph - N/A   Clear
2:35 AM 55.4 °F 51.8 °F 88% 30.11 in 10.0 mi SSW 6.9 mph - N/A   Clear
2:55 AM 55.4 °F 51.8 °F 88% 30.11 in 10.0 mi Calm Calm - N/A   Clear
3:15 AM 55.4 °F 51.8 °F 88% 30.10 in 10.0 mi Calm Calm - N/A   Clear
3:35 AM 55.4 °F 51.8 °F 88% 30.10 in 10.0 mi Calm Calm - N/A   Clear
3:55 AM 55.4 °F 51.8 °F 88% 30.10 in 10.0 mi South 5.8 mph - N/A   Clear
4:15 AM 55.4 °F 51.8 °F 88% 30.10 in 10.0 mi SSW 6.9 mph - N/A   Clear
4:35 AM 55.4 °F 50.0 °F 82% 30.10 in 10.0 mi SSW 6.9 mph - N/A   Clear
4:55 AM 55.4 °F 50.0 °F 82% 30.10 in 10.0 mi SSW 8.1 mph - N/A   Clear
5:15 AM 55.4 °F 51.8 °F 88% 30.10 in 10.0 mi SSW 5.8 mph - N/A   Clear
5:35 AM 55.4 °F 50.0 °F 82% 30.10 in 10.0 mi SSW 4.6 mph - N/A   Clear
5:55 AM 55.4 °F 50.0 °F 82% 30.11 in 10.0 mi SSW 4.6 mph - N/A   Clear
6:15 AM 55.4 °F 50.0 °F 82% 30.10 in 10.0 mi SSW 5.8 mph - N/A   Clear
6:35 AM 53.6 °F 48.2 °F 82% 30.11 in 9.0 mi SW 3.5 mph - N/A   Clear
6:55 AM 53.6 °F 48.2 °F 82% 30.11 in 7.0 mi Calm Calm - N/A   Clear
7:15 AM 53.6 °F 48.2 °F 82% 30.11 in 8.0 mi Calm Calm - N/A   Clear
7:35 AM 55.4 °F 51.8 °F 88% 30.12 in 7.0 mi Calm Calm - N/A   Clear
7:55 AM 59.0 °F 51.8 °F 77% 30.13 in 10.0 mi Calm Calm - N/A   Clear
8:15 AM 60.8 °F 53.6 °F 77% 30.13 in 10.0 mi Calm Calm - N/A   Clear
8:35 AM 60.8 °F 55.4 °F 82% 30.14 in 8.0 mi SW 8.1 mph - N/A   Scattered Clouds
8:55 AM 60.8 °F 55.4 °F 82% 30.14 in 5.0 mi SW 6.9 mph - N/A   Overcast
9:15 AM 60.8 °F 55.4 °F 82% 30.14 in 8.0 mi SSW 5.8 mph - N/A   Overcast
9:35 AM 62.6 °F 55.4 °F 77% 30.13 in 9.0 mi Calm Calm - N/A   Overcast
9:55 AM 64.4 °F 55.4 °F 73% 30.13 in 10.0 mi South 3.5 mph - N/A   Mostly Cloudy
10:15 AM 66.2 °F 55.4 °F 68% 30.13 in 10.0 mi Calm Calm - N/A   Partly Cloudy
10:35 AM 66.2 °F 55.4 °F 68% 30.14 in 10.0 mi Calm Calm - N/A   Clear
10:55 AM 68.0 °F 57.2 °F 68% 30.13 in 10.0 mi ESE 3.5 mph - N/A   Clear
11:15 AM 69.8 °F 55.4 °F 60% 30.13 in 10.0 mi South 6.9 mph - N/A   Clear
11:35 AM 69.8 °F 57.2 °F 64% 30.12 in 10.0 mi SSE 5.8 mph - N/A   Clear
11:55 AM 69.8 °F 55.4 °F 60% 30.12 in 10.0 mi South 6.9 mph - N/A   Clear
12:15 PM 71.6 °F 55.4 °F 57% 30.11 in 10.0 mi SE 10.4 mph - N/A   Clear
12:35 PM 71.6 °F 55.4 °F 57% 30.11 in 10.0 mi SE 10.4 mph - N/A   Partly Cloudy
12:55 PM 71.6 °F 53.6 °F 53% 30.10 in 10.0 mi South 10.4 mph - N/A   Clear
1:15 PM 73.4 °F 51.8 °F 47% 30.10 in 9.0 mi SSE 10.4 mph - N/A   Clear
1:35 PM 73.4 °F 51.8 °F 47% 30.10 in 10.0 mi SSE 9.2 mph - N/A   Partly Cloudy
1:55 PM 73.4 °F 51.8 °F 47% 30.09 in 9.0 mi SE 9.2 mph - N/A   Partly Cloudy
2:15 PM 73.4 °F 50.0 °F 44% 30.09 in 10.0 mi SSE 9.2 mph 17.3 mph N/A   Clear
2:35 PM 75.2 °F 51.8 °F 44% 30.09 in 8.0 mi SSE 9.2 mph - N/A   Clear
2:55 PM 75.2 °F 51.8 °F 44% 30.09 in 9.0 mi SE 8.1 mph - N/A   Clear
3:15 PM 75.2 °F 51.8 °F 44% 30.09 in 8.0 mi SE 12.7 mph - N/A   Scattered Clouds
3:35 PM 75.2 °F 51.8 °F 44% 30.09 in 10.0 mi SSE 10.4 mph - N/A   Scattered Clouds
3:55 PM 73.4 °F 51.8 °F 47% 30.09 in 10.0 mi SSE 6.9 mph - N/A   Partly Cloudy
4:15 PM 73.4 °F 51.8 °F 47% 30.08 in 10.0 mi WSW 4.6 mph - N/A   Partly Cloudy
4:35 PM 75.2 °F 51.8 °F 44% 30.08 in 10.0 mi SSE 11.5 mph - N/A   Scattered Clouds
4:55 PM 73.4 °F 51.8 °F 47% 30.08 in 10.0 mi SE 4.6 mph - N/A   Scattered Clouds
5:15 PM 75.2 °F 51.8 °F 44% 30.08 in 5.0 mi SSE 9.2 mph - N/A   Scattered Clouds
5:35 PM 73.4 °F 51.8 °F 47% 30.09 in 8.0 mi SE 8.1 mph - N/A   Scattered Clouds
5:55 PM 73.4 °F 53.6 °F 50% 30.09 in 5.0 mi SSE 8.1 mph - N/A   Partly Cloudy
6:15 PM 71.6 °F 55.4 °F 57% 30.09 in 10.0 mi South 9.2 mph - N/A   Clear
6:35 PM 71.6 °F 55.4 °F 57% 30.09 in 10.0 mi South 6.9 mph - N/A   Clear
6:55 PM 71.6 °F 55.4 °F 57% 30.09 in 10.0 mi South 6.9 mph - N/A   Clear
7:15 PM 69.8 °F 55.4 °F 60% 30.09 in 10.0 mi South 8.1 mph - N/A   Clear
7:35 PM 68.0 °F 53.6 °F 60% 30.10 in 10.0 mi South 6.9 mph - N/A   Clear
7:55 PM 68.0 °F 55.4 °F 64% 30.10 in 10.0 mi SSW 5.8 mph - N/A   Clear
8:15 PM 66.2 °F 55.4 °F 68% 30.10 in 10.0 mi South 5.8 mph - N/A   Clear
8:35 PM 64.4 °F 55.4 °F 73% 30.10 in 10.0 mi SSW 3.5 mph - N/A   Clear
8:55 PM 64.4 °F 55.4 °F 73% 30.11 in 10.0 mi Calm Calm - N/A   Clear
9:15 PM 64.4 °F 55.4 °F 73% 30.11 in 10.0 mi Calm Calm - N/A   Clear
9:35 PM 62.6 °F 55.4 °F 77% 30.12 in 10.0 mi Calm Calm - N/A   Clear
9:55 PM 59.0 °F 53.6 °F 82% 30.13 in 10.0 mi WSW 3.5 mph - N/A   Clear
10:15 PM 57.2 °F 53.6 °F 88% 30.14 in 10.0 mi SW 4.6 mph - N/A   Clear
10:35 PM 57.2 °F 53.6 °F 88% 30.14 in 10.0 mi SSW 3.5 mph - N/A   Clear
10:55 PM 59.0 °F 53.6 °F 82% 30.15 in 10.0 mi SW 6.9 mph - N/A   Clear
11:15 PM 57.2 °F 51.8 °F 82% 30.15 in 10.0 mi WSW 4.6 mph - N/A   Clear